This is the latest recevied weather packets stored in our database for station/object WD4LSS. If no packets are shown the sender has not sent any weather packets the latest 10 day(s).
| Time | Temp. | Humidity | Pressure | Rain* | Wind** | Luminosity | Snow |
|---|---|---|---|---|---|---|---|
| 1777717236 | 10.56° C | 92% | 1013.6 hPa | 0 mm | - | - | - |
| 1777714816 | 10.56° C | 91% | 1014 hPa | 0 mm | - | - | - |
| 1777714516 | 10.56° C | 91% | 1014.2 hPa | 0 mm | - | - | - |
| 1777713915 | 10.56° C | 91% | 1014.1 hPa | 0 mm | - | - | - |
| 1777713622 | 10.56° C | 91% | 1014.3 hPa | 0 mm | - | - | - |
| 1777713322 | 10.56° C | 91% | 1014.3 hPa | 0 mm | - | - | - |
| 1777712722 | 10.56° C | 91% | 1014.1 hPa | 0 mm | - | - | - |
| 1777710022 | 10.56° C | 90% | 1013.7 hPa | 0 mm | - | - | - |
| 1777706717 | 10.56° C | 88% | 1013 hPa | 0 mm | - | - | - |
| 1777705816 | 11.11° C | 88% | 1012.8 hPa | 0 mm | - | - | - |
| 1777704616 | 11.11° C | 88% | 1012.9 hPa | 0 mm | - | - | - |
| 1777704316 | 11.11° C | 88% | 1012.9 hPa | 0 mm | - | - | - |
| 1777702216 | 11.11° C | 87% | 1013.5 hPa | 0 mm | - | - | - |
| 1777701616 | 10.56° C | 88% | 1013.6 hPa | 0 mm | - | - | - |
| 1777698616 | 10.56° C | 87% | 1013 hPa | 0 mm | - | - | - |
| 1777698016 | 10.56° C | 87% | 1013 hPa | 0 mm | - | - | - |
| 1777696216 | 11.11° C | 85% | 1013.2 hPa | 0 mm | - | - | - |
| 1777695616 | 11.11° C | 85% | 1013.1 hPa | 0 mm | - | - | - |
| 1777693817 | 11.67° C | 83% | 1013.3 hPa | 0 mm | - | - | - |
| 1777693217 | 11.67° C | 83% | 1013.4 hPa | 0 mm | - | - | - |
| 1777692617 | 11.67° C | 82% | 1013.4 hPa | 0 mm | - | - | - |
| 1777692317 | 11.67° C | 82% | 1013.5 hPa | 0 mm | - | - | - |
| 1777691717 | 12.22° C | 81% | 1013.6 hPa | 0 mm | - | - | - |
| 1777687817 | 12.78° C | 79% | 1013.4 hPa | 0 mm | - | - | - |
| 1777686937 | 13.33° C | 78% | 1013.3 hPa | 0 mm | - | - | - |
* Rain latest hour (hover to see other rain measurements)
** Current wind speed in m/s (hover to see current wind gust speed)